Location: Csohesd
(46.2500°N, 22.6167°E)
Time: 15:28:41
(UTC+00:00)

SL-19 R/B - Pass Details

Date: 02 June 2022
Orbit: 874 x 1208 km, 100.6° (Epoch: 03 July)

Event Time Altitude Azimuth Distance (km) Brightness Sun altitude
Rises 19:28:10 0° 9° (N) 4,028 8.3 -10.4°
Reaches altitude 10° 19:31:13 10° 357° (N) 3,100 8.0 -10.7°
Maximum altitude 19:36:40 25° 306° (NW) 2,234 7.4 -11.3°
Drops below altitude 10° 19:42:13 10° 256° (WSW) 3,152 7.5 -11.9°
Sets 19:45:23 0° 244° (WSW) 4,110 7.9 -12.3°
